• In Hungary
  • List of Countries
  • For 7 days
  • Water Temperature
  • Satellite Maps
  • Weather Map
  • News
  • Weather Widgets
  • user-avatar
    Login

    Hourly Weather Ronse

    Today, 25 September, Tuesday

    Time Temperature Precipitation Wind Pressure Humidity
    00:00 +8°C° 0 mm 1 mps 774 mmHg 78%
    01:00 +8°C° 0 mm 1 mps 774 mmHg 79%
    02:00 +8°C° 0 mm 1 mps 774 mmHg 80%
    03:00 +8°C° 0 mm 1 mps 774 mmHg 81%
    04:00 +8°C° 0 mm 1 mps 774 mmHg 81%
    05:00 +8°C° 0 mm 1 mps 774 mmHg 82%
    06:00 +7°C° 0 mm 1 mps 774 mmHg 82%
    07:00 +9°C° 0 mm 1 mps 774 mmHg 76%
    08:00 +11°C° 0 mm 1 mps 774 mmHg 70%
    09:00 +13°C° 0 mm 1 mps 774 mmHg 63%
    10:00 +14°C° 0 mm 1 mps 774 mmHg 59%
    11:00 +15°C° 0 mm 2 mps 774 mmHg 54%
    12:00 +16°C° 0 mm 2 mps 774 mmHg 50%
    13:00 +16°C° 0 mm 2 mps 774 mmHg 49%
    14:00 +17°C° 0 mm 2 mps 773 mmHg 49%
    15:00 +17°C° 0 mm 2 mps 773 mmHg 48%
    16:00 +15°C° 0 mm 2 mps 773 mmHg 53%
    17:00 +14°C° 0 mm 2 mps 772 mmHg 58%
    18:00 +12°C° 0 mm 2 mps 772 mmHg 63%
    19:00 +12°C° 0 mm 2 mps 772 mmHg 65%
    20:00 +10°C° 0 mm 2 mps 772 mmHg 67%
    21:00 +9°C° 0 mm 2 mps 773 mmHg 70%
    22:00 +9°C° 0 mm 2 mps 772 mmHg 71%
    23:00 +9°C° 0 mm 2 mps 772 mmHg 72%

    Tomorrow, 26 September, Wednesday

    Time Temperature Precipitation Wind Pressure Humidity
    00:00 +8°C° 0 mm 2 mps 772 mmHg 73%
    01:00 +8°C° 0 mm 2 mps 772 mmHg 72%
    02:00 +8°C° 0 mm 2 mps 772 mmHg 71%
    03:00 +7°C° 0 mm 2 mps 771 mmHg 71%
    04:00 +7°C° 0 mm 2 mps 771 mmHg 70%
    05:00 +7°C° 0 mm 2 mps 771 mmHg 69%
    06:00 +8°C° 0 mm 1 mps 771 mmHg 68%
    07:00 +9°C° 0 mm 2 mps 771 mmHg 62%
    08:00 +12°C° 0 mm 2 mps 771 mmHg 55%
    09:00 +14°C° 0 mm 2 mps 771 mmHg 49%
    10:00 +16°C° 0 mm 1 mps 771 mmHg 45%
    11:00 +18°C° 0 mm 1 mps 771 mmHg 41%
    12:00 +20°C° 0 mm 1 mps 770 mmHg 37%
    13:00 +20°C° 0 mm 1 mps 770 mmHg 37%
    14:00 +20°C° 0 mm 1 mps 770 mmHg 36%
    15:00 +21°C° 0 mm 1 mps 770 mmHg 36%
    16:00 +17°C° 0 mm 0 mps 770 mmHg 40%
    17:00 +15°C° 0 mm 0 mps 770 mmHg 45%
    18:00 +13°C° 0 mm 0 mps 769 mmHg 49%
    19:00 +14°C° 0 mm 1 mps 770 mmHg 51%
    20:00 +13°C° 0 mm 1 mps 770 mmHg 52%
    21:00 +13°C° 0 mm 1 mps 770 mmHg 54%
    22:00 +12°C° 0 mm 1 mps 770 mmHg 55%
    23:00 +12°C° 0 mm 1 mps 769 mmHg 57%

    Day after tomorrow, 27 September, Thursday

    Time Temperature Precipitation Wind Pressure Humidity
    00:00 +12°C° 0 mm 1 mps 769 mmHg 59%
    01:00 +11°C° 0 mm 1 mps 769 mmHg 60%
    02:00 +11°C° 0 mm 1 mps 769 mmHg 61%
    03:00 +11°C° 0 mm 1 mps 769 mmHg 63%
    04:00 +10°C° 0 mm 1 mps 769 mmHg 64%
    05:00 +10°C° 0 mm 1 mps 768 mmHg 65%
    06:00 +9°C° 0 mm 2 mps 768 mmHg 66%
    07:00 +12°C° 0 mm 2 mps 768 mmHg 62%
    08:00 +14°C° 0 mm 2 mps 768 mmHg 57%
    09:00 +16°C° 0 mm 2 mps 768 mmHg 53%
    10:00 +18°C° 0 mm 2 mps 767 mmHg 49%
    11:00 +19°C° 0 mm 3 mps 767 mmHg 45%
    12:00 +21°C° 0 mm 3 mps 767 mmHg 41%
    13:00 +21°C° 0 mm 3 mps 766 mmHg 42%
    14:00 +22°C° 0 mm 3 mps 765 mmHg 43%
    15:00 +22°C° 0 mm 3 mps 765 mmHg 44%
    16:00 +20°C° 0 mm 2 mps 764 mmHg 50%
    17:00 +19°C° 0 mm 2 mps 764 mmHg 55%
    18:00 +18°C° 0 mm 1 mps 764 mmHg 61%
    19:00 +16°C° 0 mm 2 mps 764 mmHg 64%
    20:00 +16°C° 0 mm 2 mps 764 mmHg 66%
    21:00 +16°C° 0 mm 2 mps 764 mmHg 69%
    22:00 +15°C° 0 mm 2 mps 764 mmHg 71%
    23:00 +15°C° 0 mm 1 mps 764 mmHg 74%

    28 September, Friday

    Time Temperature Precipitation Wind Pressure Humidity
    00:00 +15°C° 0 mm 1 mps 763 mmHg 77%
    01:00 +14°C° 0 mm 1 mps 763 mmHg 79%
    02:00 +14°C° 0 mm 1 mps 763 mmHg 81%
    03:00 +14°C° 0 mm 1 mps 763 mmHg 84%
    04:00 +14°C° 0 mm 1 mps 763 mmHg 84%
    05:00 +14°C° 0 mm 1 mps 763 mmHg 85%
    06:00 +13°C° 0 mm 1 mps 763 mmHg 86%
    07:00 +15°C° 0 mm 2 mps 764 mmHg 80%
    08:00 +17°C° 0 mm 2 mps 764 mmHg 75%
    09:00 +18°C° 0 mm 3 mps 764 mmHg 69%
    10:00 +19°C° 0 mm 3 mps 764 mmHg 66%
    11:00 +19°C° 0 mm 3 mps 764 mmHg 63%
    12:00 +20°C° 0 mm 4 mps 764 mmHg 60%
    13:00 +20°C° 0 mm 4 mps 764 mmHg 60%
    14:00 +20°C° 0 mm 5 mps 764 mmHg 60%
    15:00 +20°C° 0 mm 5 mps 764 mmHg 61%
    16:00 +17°C° 0 mm 5 mps 764 mmHg 65%
    17:00 +16°C° 0 mm 5 mps 765 mmHg 70%
    18:00 +14°C° 0 mm 5 mps 765 mmHg 74%
    19:00 +13°C° 0 mm 5 mps 766 mmHg 73%
    20:00 +12°C° 0 mm 5 mps 766 mmHg 72%
    21:00 +12°C° 0 mm 5 mps 767 mmHg 71%
    22:00 +10°C° 0 mm 5 mps 767 mmHg 71%
    23:00 +9°C° 0 mm 5 mps 767 mmHg 71%

    29 September, Saturday

    Time Temperature Precipitation Wind Pressure Humidity
    00:00 +9°C° 0 mm 5 mps 767 mmHg 71%
    01:00 +8°C° 0 mm 4 mps 767 mmHg 73%
    02:00 +7°C° 0 mm 4 mps 767 mmHg 74%
    03:00 +7°C° 0 mm 4 mps 767 mmHg 76%
    04:00 +6°C° 0 mm 4 mps 767 mmHg 78%
    05:00 +6°C° 0 mm 4 mps 767 mmHg 81%
    06:00 +6°C° 0 mm 4 mps 767 mmHg 84%
    07:00 +7°C° 0 mm 4 mps 767 mmHg 77%
    08:00 +10°C° 0 mm 4 mps 767 mmHg 70%
    09:00 +10°C° 0 mm 5 mps 767 mmHg 64%
    10:00 +13°C° 0 mm 5 mps 767 mmHg 59%
    11:00 +14°C° 0 mm 5 mps 767 mmHg 55%
    12:00 +15°C° 0 mm 5 mps 766 mmHg 50%
    13:00 +15°C° 0 mm 5 mps 766 mmHg 50%
    14:00 +15°C° 0 mm 5 mps 765 mmHg 50%
    15:00 +15°C° 0 mm 5 mps 765 mmHg 50%
    16:00 +14°C° 0 mm 4 mps 765 mmHg 54%
    17:00 +12°C° 0 mm 3 mps 765 mmHg 58%
    18:00 +11°C° 0 mm 3 mps 765 mmHg 62%
    19:00 +10°C° 0 mm 3 mps 765 mmHg 64%
    20:00 +10°C° 0 mm 3 mps 765 mmHg 65%
    21:00 +9°C° 0 mm 3 mps 765 mmHg 67%
    22:00 +9°C° 0 mm 2 mps 765 mmHg 69%
    23:00 +8°C° 0 mm 2 mps 765 mmHg 71%

    30 September, Sunday

    Time Temperature Precipitation Wind Pressure Humidity
    00:00 +8°C° 0 mm 2 mps 764 mmHg 73%
    01:00 +7°C° 0 mm 2 mps 764 mmHg 74%
    02:00 +8°C° 0 mm 1 mps 764 mmHg 75%
    03:00 +8°C° 0 mm 1 mps 764 mmHg 76%
    04:00 +7°C° 0 mm 1 mps 764 mmHg 77%
    05:00 +7°C° 0 mm 1 mps 764 mmHg 78%
    06:00 +7°C° 0 mm 1 mps 764 mmHg 79%
    07:00 +9°C° 0 mm 1 mps 764 mmHg 72%
    08:00 +11°C° 0 mm 1 mps 764 mmHg 65%
    09:00 +13°C° 0 mm 2 mps 764 mmHg 59%
    10:00 +15°C° 0 mm 2 mps 765 mmHg 55%
    11:00 +16°C° 0 mm 3 mps 765 mmHg 52%
    12:00 +17°C° 0 mm 3 mps 765 mmHg 49%
    13:00 +17°C° 0 mm 3 mps 765 mmHg 50%
    14:00 +17°C° 0 mm 4 mps 765 mmHg 51%
    15:00 +17°C° 0 mm 4 mps 765 mmHg 53%
    16:00 +14°C° 0 mm 4 mps 765 mmHg 59%
    17:00 +13°C° 0 mm 3 mps 765 mmHg 66%
    18:00 +11°C° 0 mm 3 mps 766 mmHg 73%
    19:00 +10°C° 0 mm 2 mps 766 mmHg 75%
    20:00 +10°C° 0 mm 2 mps 767 mmHg 77%
    21:00 +10°C° 0 mm 1 mps 767 mmHg 79%
    22:00 +10°C° 0 mm 1 mps 767 mmHg 79%
    23:00 +10°C° 0 mm 1 mps 767 mmHg 79%
    Show more